Wind_Speed
23 18 17 18 16 16 17 17 13 9 8 10 11 9 7 7 7 6 4 3 3 4 6 8 10 10 10 10 11 11 13 13 10 8 8 9 9 10 10 11 9 7 8 9 7 5 3 5 9 9 8 7 6 5 6 8 10 8 7 10 10 9 10
19 17 17 17 17 17 17 15 11 10 12 13 12 7 3 4 5 6 5 5 5 7 9 10 10 10 10 10 11 10 10 11 11 11 11 10 9 8 7 6 5 5 8 10 9 8 3 4 8 10 7 8 8 6 6 9 11 10 10 13 13 11 12
19 18 18 18 19 18 16 14 13 14 16 15 11 5 3 5 7 6 7 7 8 10 11 10 10 11 11 11 11 10 10 10 10 10 11 11 10 10 10 8 7 6 6 8 9 9 4 1 3 6 6 9 9 7 6 9 12 12 13 15 14 11 13
23 21 20 19 19 18 17 16 15 16 15 14 10 10 10 9 12 10 8 8 10 11 12 11 11 12 12 11 10 10 10 11 10 9 9 10 10 11 11 11 11 9 8 8 8 9 6 3 1 0 4 7 8 7 6 8 11 11 12 14 11 9 13
25 23 21 19 19 19 19 18 18 17 16 13 11 11 15 13 11 10 10 10 11 13 13 12 12 12 12 12 11 11 11 12 11 10 10 10 10 11 11 10 10 10 9 8 9 9 8 6 4 2 2 4 4 6 7 7 8 9 9 11 9 9 12
25 23 21 19 19 20 20 19 19 19 16 12 10 11 12 10 7 8 11 12 13 14 14 12 12 13 12 12 12 12 12 11 11 11 11 11 11 11 10 10 9 9 8 7 8 8 8 8 8 6 3 1 1 3 6 6 4 6 5 6 8 10 11
25 23 21 19 19 20 20 20 19 19 15 11 10 11 9 7 7 8 11 14 14 13 13 13 13 13 12 12 12 12 12 11 11 10 10 10 10 10 10 9 9 8 7 7 6 6 6 6 7 7 5 3 2 2 3 1 4 3 2 8 8 7 11
25 22 20 19 19 21 20 19 19 16 12 10 9 9 7 7 8 8 10 13 13 13 13 13 14 14 14 13 13 12 12 11 11 10 10 9 9 9 9 9 8 8 7 6 5 5 5 5 5 5 3 4 4 1 1 1 3 2 5 10 8 5 11
24 22 20 19 20 20 19 19 17 13 11 9 7 8 8 10 10 9 9 12 12 13 13 14 14 14 14 13 13 13 12 12 11 10 10 10 9 9 9 8 7 6 6 5 4 5 5 6 6 6 4 3 4 2 0 0 3 3 6 11 9 7 11
24 22 21 20 20 19 17 17 14 12 11 10 9 11 10 10 10 9 10 12 13 14 15 15 15 15 14 14 14 14 13 12 12 11 11 11 10 9 9 8 7 6 6 5 5 5 6 7 6 7 6 5 4 2 1 1 3 4 8 12 12 12 13
25 23 21 20 20 18 17 17 16 16 15 10 10 12 11 10 11 11 12 14 14 15 16 16 16 16 15 15 14 14 13 12 12 12 11 11 10 9 8 8 7 6 6 6 6 6 6 7 7 6 6 7 6 5 3 3 4 4 8 12 13 15 17
26 24 21 20 20 19 19 19 19 19 15 9 9 12 11 11 13 14 15 15 15 16 16 16 17 16 16 15 14 13 13 12 12 12 11 10 10 9 9 8 8 7 7 7 7 6 5 5 6 6 5 6 7 7 6 6 7 7 8 12 15 16 18
26 25 23 21 20 19 20 21 19 16 12 8 10 14 12 11 14 16 16 16 16 16 17 17 17 17 16 15 14 14 13 13 12 12 11 10 10 10 9 9 8 8 8 8 7 6 6 6 6 5 5 6 6 7 8 8 10 11 10 12 16 18 18
28 27 25 22 21 20 21 21 18 14 10 8 11 14 14 13 14 16 16 16 17 16 17 18 17 17 16 15 15 14 14 13 12 11 11 11 11 10 9 8 7 7 7 8 7 5 5 6 5 5 4 4 4 6 9 9 11 14 13 13 17 19 19
29 29 26 23 21 20 20 20 18 14 11 9 9 13 16 16 16 16 16 17 17 16 18 18 17 17 17 16 16 14 14 13 12 11 11 11 10 9 9 8 7 6 6 6 6 5 4 4 4 3 2 3 4 6 9 10 12 15 17 17 19 20 20
31 30 28 26 23 21 20 20 19 16 13 10 11 15 17 17 17 16 16 17 17 17 18 18 17 18 17 16 15 14 14 12 12 11 11 11 10 9 9 8 7 7 6 6 5 5 4 2 3 2 2 3 4 6 8 10 11 14 18 20 21 22 22
32 31 29 27 25 22 21 22 20 18 14 10 11 17 18 18 17 17 17 17 17 17 18 18 18 18 17 15 15 14 13 12 11 11 11 11 10 10 9 8 8 7 7 6 5 5 4 1 1 1 2 3 4 6 8 10 11 13 16 20 21 22 22
33 32 29 28 27 24 23 23 21 19 16 11 13 19 19 18 18 17 17 17 17 18 18 18 18 18 17 16 15 14 13 12 12 11 12 12 11 10 10 9 8 8 7 6 5 4 3 1 0 0 1 3 5 7 9 11 12 13 15 19 21 22 21
34 32 30 29 28 26 25 24 23 21 17 13 16 20 20 19 19 18 17 17 17 18 17 17 18 17 17 16 15 14 13 13 13 13 12 12 11 11 10 9 8 8 7 5 4 3 3 1 1 1 3 4 6 8 10 12 13 14 14 17 20 21 21
35 32 31 31 30 27 26 25 24 22 18 16 18 20 21 20 19 19 18 17 16 16 16 16 16 16 16 16 15 14 14 14 14 13 11 11 11 11 10 10 9 7 6 5 3 3 2 1 1 3 4 6 8 9 11 13 14 15 16 17 19 21 22
33 32 33 33 30 27 27 26 24 21 18 18 20 21 21 22 20 19 18 17 17 16 17 17 16 16 16 15 15 14 14 14 13 12 11 11 11 11 10 10 9 6 5 4 3 2 2 1 2 4 5 7 9 11 12 14 15 16 18 20 22 23 24
32 32 33 32 30 28 28 26 23 20 20 21 21 21 22 22 22 21 20 20 20 19 19 20 19 19 18 18 17 16 14 13 13 13 12 11 11 11 11 10 7 6 6 5 3 3 2 2 3 5 6 8 10 11 13 14 16 17 20 23 25 25 27
34 34 33 32 31 31 30 26 23 21 22 22 21 22 23 23 23 24 24 24 23 21 21 21 22 21 21 19 17 16 15 14 13 13 12 11 11 11 10 9 7 6 6 5 3 4 3 3 4 6 8 9 10 11 13 16 18 19 22 25 26 27 28
37 35 34 33 33 33 30 25 23 22 23 22 22 24 26 26 26 27 26 23 20 20 21 23 23 22 21 19 17 16 15 14 13 12 12 11 10 10 9 8 7 7 6 5 5 5 4 3 5 7 8 10 11 12 15 17 19 20 23 26 27 28 28
36 35 34 34 34 32 28 24 23 23 24 24 25 27 28 28 28 28 26 19 18 21 24 25 24 22 20 19 18 17 16 15 14 12 11 10 8 8 9 9 7 7 7 6 6 5 3 3 5 7 9 10 11 13 16 18 19 20 23 26 28 29 28
35 35 35 33 33 32 29 26 25 25 26 26 26 26 28 28 29 30 26 18 18 23 25 24 23 23 22 21 19 17 15 14 13 12 11 9 6 7 10 10 8 7 6 6 5 4 4 5 6 8 10 11 11 13 15 16 18 20 24 26 28 29 27
35 36 35 33 34 32 30 28 27 27 27 25 25 27 29 30 30 29 25 20 19 23 25 24 24 24 23 22 20 18 15 12 13 12 10 9 10 12 14 11 8 6 7 7 5 4 4 5 7 8 10 11 11 12 13 14 16 20 23 25 27 27 24
37 37 35 33 34 33 31 30 29 28 26 25 25 27 30 31 30 28 26 22 21 22 24 25 25 24 23 23 22 20 18 15 14 13 12 13 17 18 16 12 8 7 9 10 6 4 5 6 7 9 10 10 10 9 10 12 15 18 21 22 22 21 21
37 37 35 35 35 34 33 32 29 28 26 24 24 25 27 30 30 28 27 25 22 22 24 25 24 22 23 24 23 22 20 17 14 13 15 18 19 17 15 14 12 12 13 12 7 5 6 6 7 9 9 9 9 9 8 11 14 16 17 16 16 18 21
36 36 35 35 35 35 34 32 30 29 27 25 24 23 25 28 29 27 26 24 22 22 23 23 22 22 23 24 24 25 22 18 15 15 18 18 15 14 15 14 13 13 13 12 8 6 6 7 7 8 9 9 10 9 8 10 13 13 12 14 16 20 23
33 34 34 33 35 35 33 31 30 29 28 25 23 23 24 26 26 24 23 23 23 22 22 22 21 21 22 23 24 26 24 19 16 16 17 15 12 13 14 13 12 13 13 9 6 6 7 7 7 8 9 10 10 10 9 11 12 11 12 16 19 21 22
31 33 32 30 31 32 30 29 29 29 27 24 22 22 24 25 24 22 22 23 22 21 22 22 22 21 22 23 24 25 25 19 13 12 12 12 11 13 14 13 12 13 12 8 6 7 7 7 8 9 10 11 11 10 9 11 12 13 16 19 20 21 21
29 30 30 28 29 29 28 28 28 28 25 22 21 22 23 23 22 22 22 23 22 23 23 23 22 21 21 22 23 24 24 19 12 9 10 11 11 12 14 13 12 13 12 9 8 9 8 8 8 9 10 11 11 10 9 11 13 14 17 19 20 20 20
27 30 31 29 29 29 29 29 28 27 25 22 21 21 21 21 21 22 23 23 23 26 27 25 21 21 22 22 22 23 23 20 16 12 12 12 12 13 14 13 11 11 12 10 9 9 8 8 8 9 10 10 10 9 8 11 14 15 17 18 18 19 19
29 32 32 31 31 31 30 29 27 27 25 22 21 23 24 24 25 25 25 25 24 27 29 26 21 21 23 23 23 23 23 22 20 17 15 13 12 12 13 13 11 10 10 10 9 8 9 9 9 9 9 9 9 7 7 10 13 15 17 17 16 18 20
31 31 30 30 30 30 29 28 27 27 25 24 24 27 28 27 26 25 24 23 24 27 29 25 21 22 23 23 23 24 24 23 21 19 17 14 11 12 14 14 13 12 11 10 9 9 9 9 9 9 8 7 8 6 6 8 11 14 17 16 15 18 20
29 29 29 29 29 28 27 28 28 28 27 27 28 29 27 25 25 24 23 22 24 28 28 24 20 21 23 23 23 24 25 25 23 21 19 17 15 15 16 16 16 16 14 12 11 10 10 9 8 8 7 7 7 6 5 7 9 12 15 15 14 17 19
Wind_Direction
204 205 207 213 212 211 216 214 208 202 202 217 223 223 230 225 205 195 204 222 229 228 226 224 219 217 216 210 210 209 205 203 197 188 188 194 210 221 227 239 245 230 198 190 193 190 223 269 266 271 289 303 329 6 14 7 353 347 19 31 32 35 8
207 208 206 209 211 213 217 209 193 199 212 222 229 217 215 246 220 199 209 216 217 228 235 235 229 223 220 216 218 219 213 210 207 202 195 190 193 190 190 207 215 205 199 200 206 209 232 285 250 246 275 306 313 318 335 356 352 346 16 26 22 23 5
200 202 201 207 213 212 210 199 188 205 218 223 223 177 109 288 259 216 216 222 221 234 243 239 226 219 219 217 217 217 210 207 211 214 205 197 198 193 185 179 170 171 189 201 211 212 217 311 235 234 278 304 303 299 317 340 344 353 17 22 16 2 347
198 200 204 208 210 205 199 195 197 211 220 224 214 161 156 225 243 221 220 230 226 235 242 234 221 215 215 214 212 209 201 196 197 202 203 204 207 206 201 197 190 189 197 203 204 195 190 192 151 321 298 295 288 291 318 333 340 358 13 16 13 337 326
204 206 213 213 206 200 196 196 202 213 221 226 222 191 184 208 232 220 219 232 228 230 235 227 218 215 213 209 201 195 192 189 187 190 195 200 204 206 207 209 207 207 212 212 204 196 195 189 163 151 281 288 279 293 310 315 345 20 20 6 352 319 317
209 212 216 214 205 201 199 197 202 213 221 221 223 223 210 207 231 225 217 229 231 228 229 222 215 213 208 203 196 189 188 187 189 190 192 196 197 198 202 207 209 207 211 209 199 201 203 192 186 184 193 244 265 307 297 295 5 52 49 353 333 317 315
211 213 216 214 207 205 202 198 205 215 219 216 217 231 224 202 226 232 218 226 230 224 221 214 209 207 200 196 191 186 185 184 188 188 189 194 193 194 198 199 200 195 193 195 191 197 197 189 195 192 180 179 160 332 298 334 42 57 331 325 326 321 313
212 213 216 216 210 208 202 199 206 211 212 214 215 226 218 191 212 231 223 223 221 214 212 208 205 202 196 192 187 184 185 183 185 184 183 188 189 193 193 188 188 183 177 179 179 182 175 162 160 156 158 159 134 30 291 75 29 350 318 319 327 330 308
209 211 217 216 209 207 202 200 203 200 203 206 201 216 211 193 206 225 217 210 206 204 204 202 202 199 193 189 185 185 185 183 184 182 180 185 186 186 184 177 173 168 168 170 166 164 156 147 138 123 111 125 118 78 138 98 319 304 312 319 334 340 315
207 209 213 210 204 202 196 196 194 189 199 197 189 213 219 202 207 212 200 196 196 198 199 198 196 193 189 187 185 186 187 186 186 183 182 183 182 180 175 170 165 161 161 156 151 156 151 139 124 107 99 97 91 90 144 309 310 289 302 321 336 339 337
206 207 208 205 202 198 186 184 186 188 201 200 193 214 223 209 200 194 193 194 194 197 198 195 193 191 189 187 187 188 188 189 188 187 186 183 180 177 170 163 162 159 156 153 150 155 156 141 118 99 92 81 60 55 63 358 338 311 314 332 342 340 345
203 201 201 200 200 195 182 183 190 193 199 200 201 213 213 200 191 191 196 195 195 198 197 194 193 192 190 189 189 188 188 189 188 185 185 181 174 168 164 162 162 159 155 155 153 148 145 133 114 97 85 67 36 23 25 358 340 341 334 336 344 347 345
198 195 198 198 196 191 183 188 198 200 198 200 210 209 197 188 190 195 197 194 196 199 195 194 194 192 190 189 189 188 187 187 186 184 181 176 170 167 171 174 172 172 166 156 149 140 129 113 96 85 68 49 17 359 3 349 335 345 352 339 340 348 347
193 192 196 198 196 192 189 195 202 204 203 214 218 201 185 183 190 195 196 194 198 199 195 195 195 191 190 189 188 187 186 185 183 182 178 176 175 175 179 183 179 182 179 162 152 145 136 117 86 66 49 33 9 351 351 346 335 340 354 353 345 349 351
193 194 196 197 199 201 199 199 205 206 204 216 215 189 180 184 189 193 195 196 199 198 196 197 194 192 192 191 189 185 185 187 183 180 180 180 184 184 185 185 178 174 173 163 150 143 143 127 97 68 39 17 6 355 345 342 339 336 343 352 350 348 347
197 199 199 198 202 207 202 197 205 209 207 217 207 184 182 187 189 193 196 196 199 197 197 197 195 194 195 193 189 186 188 189 184 183 185 184 185 188 188 184 178 173 169 165 155 145 148 139 107 85 40 9 355 351 344 339 340 336 334 342 347 343 339
199 201 200 199 203 206 201 199 206 208 210 221 202 185 186 191 191 193 194 195 197 196 198 198 196 197 196 192 190 190 193 189 182 184 187 185 186 189 190 184 180 182 176 174 175 157 149 150 105 87 28 2 347 345 345 342 342 337 329 331 339 338 334
199 202 201 199 202 204 201 204 209 207 210 213 196 188 190 190 189 189 190 194 195 196 198 197 197 198 194 191 192 193 191 183 179 186 189 188 189 189 190 190 187 190 188 183 183 165 151 163 151 57 1 354 348 344 345 343 343 341 332 328 331 333 333
200 204 203 199 200 202 202 207 209 207 209 205 194 192 188 185 186 186 187 192 193 196 199 196 197 198 192 191 192 190 187 182 184 194 195 192 194 195 194 196 197 197 199 196 189 179 170 184 286 334 348 346 341 341 342 343 344 345 339 330 329 332 333
203 204 201 199 200 201 203 207 207 206 206 199 195 193 185 183 186 185 186 187 187 193 196 193 195 195 191 191 190 188 189 190 192 197 197 194 198 200 199 202 206 203 203 209 204 194 195 237 311 329 341 340 338 341 343 343 346 347 343 338 338 338 337
203 202 200 200 200 201 204 206 204 203 201 196 196 192 186 187 186 181 181 180 180 188 193 193 196 197 194 192 193 194 195 196 196 192 192 199 200 201 202 206 209 204 201 214 222 222 246 283 317 332 335 336 338 341 343 342 344 346 345 345 346 344 340
201 200 200 200 200 203 206 203 200 199 196 194 196 191 188 189 183 176 178 182 188 198 203 203 204 202 201 200 200 202 198 197 198 191 192 203 203 202 208 210 206 203 203 209 225 238 257 283 310 327 330 335 339 338 340 342 343 345 347 348 348 346 343
199 199 201 201 201 204 203 198 195 196 194 195 195 191 189 187 181 181 187 192 200 211 214 211 207 205 204 203 202 203 197 194 198 196 196 205 204 200 211 216 205 204 212 213 231 254 265 292 315 327 329 332 334 334 340 346 347 348 347 347 348 346 344
199 199 201 200 201 202 198 194 194 194 195 197 196 193 194 190 187 193 200 204 214 222 217 209 206 206 205 201 199 199 196 193 196 197 197 205 205 198 208 223 211 205 218 220 227 247 259 297 319 326 327 325 328 337 345 347 346 346 345 345 346 345 342
199 199 200 200 201 199 192 189 194 195 199 204 201 200 202 199 196 200 206 213 224 223 215 209 207 205 203 200 198 196 194 193 192 194 198 202 206 203 211 226 224 217 225 224 227 244 263 300 315 322 321 320 331 343 344 341 340 340 341 341 342 342 341
200 199 199 199 199 196 189 188 196 202 208 210 207 207 209 205 202 203 208 220 227 218 212 211 209 205 201 200 199 191 188 194 192 190 194 191 194 219 228 235 240 237 236 237 242 261 288 309 319 324 320 322 336 342 338 336 336 335 336 338 338 339 341
200 197 197 198 197 195 194 196 202 209 215 214 211 211 211 207 205 206 211 223 224 214 212 211 209 206 201 202 201 186 176 194 200 191 188 186 193 214 227 235 243 254 262 258 253 265 291 308 316 318 319 327 336 337 336 337 332 330 334 336 334 336 343
198 197 196 196 197 197 199 203 208 212 215 214 212 213 212 210 210 209 213 222 219 211 211 212 211 209 204 203 203 188 176 190 199 189 188 200 207 214 223 227 220 224 250 259 260 269 283 298 308 311 319 327 331 339 344 335 326 329 334 334 333 339 349
197 197 194 195 197 198 200 207 214 217 216 214 215 216 213 211 212 212 216 220 214 207 212 215 213 211 207 205 203 194 188 189 188 190 202 213 218 221 226 229 220 215 234 252 260 264 275 291 302 308 319 323 327 344 345 324 323 331 335 337 345 355 358
199 197 194 195 199 201 203 210 218 222 220 216 217 217 213 212 213 215 216 214 207 206 214 219 217 211 209 207 202 199 198 191 186 200 215 221 223 224 227 230 223 219 234 250 256 256 271 289 299 307 317 320 325 337 336 327 333 342 349 358 5 5 3
195 195 196 198 200 202 206 213 219 223 222 220 222 220 215 214 215 215 213 206 203 209 217 221 220 213 209 208 203 201 201 197 198 209 219 225 224 219 227 232 222 223 238 254 261 262 273 288 299 306 312 317 326 334 343 345 346 355 8 12 11 8 3
193 197 201 201 200 202 209 216 219 221 221 221 223 221 216 216 215 212 208 200 200 212 219 222 224 218 210 207 204 203 202 200 206 212 213 222 222 216 227 235 227 231 245 255 262 268 277 289 299 305 309 318 330 341 353 358 358 6 14 13 11 7 360
197 202 205 202 201 206 214 218 218 219 220 218 217 216 214 214 210 205 202 197 201 213 220 222 223 217 211 207 205 206 204 195 196 210 213 219 220 218 228 232 226 233 245 246 251 264 277 288 297 304 311 321 335 345 356 5 11 14 12 11 8 360 352
199 202 205 204 204 208 215 218 217 216 217 214 210 207 204 203 200 199 200 198 203 215 221 221 218 211 209 208 207 209 207 194 186 198 212 221 223 222 232 238 230 230 239 242 248 261 275 288 298 305 312 325 339 348 358 9 15 14 11 9 3 351 346
200 203 206 208 208 210 212 215 215 213 211 207 202 199 196 194 194 199 206 205 207 217 223 222 217 210 209 209 208 208 208 200 192 191 199 212 222 226 238 250 247 235 233 239 247 261 276 289 300 305 313 332 346 354 7 13 12 8 6 4 356 346 345
204 208 211 212 213 212 211 212 212 210 205 199 198 198 197 197 201 209 214 211 209 219 226 223 215 212 213 211 208 206 204 201 199 195 192 195 208 223 238 250 253 247 243 246 256 270 280 291 301 304 313 338 356 4 12 15 11 5 359 355 348 343 343
209 210 213 215 214 213 212 212 209 205 203 203 205 205 203 207 215 218 215 208 208 219 228 226 217 216 216 212 210 208 204 202 203 200 194 191 198 212 226 236 242 245 250 257 263 269 276 288 300 307 313 339 5 11 2 5 11 360 346 340 339 340 340
Height
1530 1532 1533 1533 1534 1535 1536 1538 1539 1541 1542 1542 1543 1543 1543 1542 1543 1543 1543 1544 1544 1544 1544 1544 1544 1545 1545 1546 1546 1546 1547 1548 1548 1548 1549 1549 1550 1551 1552 1553 1554 1554 1555 1555 1555 1556 1556 1556 1555 1555 1556 1556 1556 1556 1555 1555 1554 1553 1552 1551 1550 1549 1548
1530 1531 1531 1532 1533 1534 1535 1537 1539 1540 1540 1541 1541 1542 1542 1542 1542 1542 1542 1543 1543 1543 1543 1543 1544 1544 1545 1545 1546 1546 1547 1547 1548 1548 1548 1549 1550 1551 1551 1552 1553 1554 1554 1554 1555 1555 1555 1555 1555 1554 1555 1555 1555 1555 1555 1555 1554 1553 1551 1550 1549 1548 1547
1528 1529 1530 1530 1531 1532 1534 1536 1537 1538 1538 1539 1540 1541 1541 1541 1541 1541 1541 1542 1542 1542 1542 1542 1543 1544 1544 1545 1545 1546 1546 1547 1548 1548 1548 1549 1549 1550 1551 1551 1552 1553 1553 1553 1554 1554 1555 1555 1555 1554 1554 1554 1554 1554 1554 1554 1553 1552 1550 1548 1548 1547 1548
1525 1527 1527 1528 1529 1531 1532 1534 1536 1536 1537 1537 1538 1540 1540 1539 1540 1540 1540 1541 1541 1541 1541 1542 1543 1543 1544 1544 1545 1545 1546 1547 1547 1548 1548 1549 1550 1550 1551 1551 1551 1552 1552 1552 1553 1553 1554 1554 1555 1555 1555 1554 1553 1552 1553 1553 1552 1551 1549 1548 1548 1549 1548
1523 1525 1526 1527 1528 1529 1531 1533 1534 1535 1535 1536 1537 1538 1539 1538 1538 1539 1539 1539 1540 1540 1540 1541 1542 1543 1543 1544 1544 1545 1546 1546 1547 1547 1548 1549 1550 1550 1551 1551 1551 1551 1552 1552 1552 1553 1553 1553 1554 1554 1554 1554 1553 1552 1552 1552 1552 1550 1549 1549 1550 1550 1548
1521 1523 1524 1525 1527 1528 1530 1531 1532 1533 1534 1535 1535 1536 1537 1537 1537 1537 1538 1538 1538 1539 1540 1541 1542 1542 1543 1543 1544 1545 1545 1546 1547 1547 1548 1549 1549 1550 1550 1551 1551 1551 1552 1552 1552 1552 1552 1553 1553 1553 1553 1553 1553 1552 1551 1551 1551 1550 1550 1551 1551 1550 1548
1520 1522 1523 1524 1525 1527 1528 1530 1531 1532 1533 1534 1535 1535 1535 1536 1536 1536 1536 1536 1537 1539 1540 1541 1541 1542 1543 1543 1544 1545 1545 1546 1547 1547 1548 1549 1549 1550 1550 1551 1551 1551 1552 1552 1552 1552 1552 1552 1553 1553 1552 1552 1552 1553 1552 1552 1551 1551 1551 1551 1550 1550 1548
1518 1520 1521 1523 1524 1525 1527 1529 1530 1531 1532 1533 1534 1534 1535 1536 1536 1535 1535 1536 1537 1538 1539 1540 1541 1541 1542 1543 1544 1545 1545 1546 1547 1547 1548 1549 1549 1550 1550 1551 1551 1551 1551 1552 1552 1552 1552 1553 1552 1552 1552 1552 1552 1552 1552 1552 1552 1551 1551 1550 1549 1549 1547
1517 1518 1520 1521 1523 1524 1525 1527 1529 1530 1531 1533 1533 1534 1534 1535 1535 1534 1534 1535 1537 1538 1539 1540 1541 1541 1542 1543 1544 1544 1545 1546 1546 1547 1548 1549 1550 1550 1550 1551 1551 1551 1551 1552 1552 1552 1552 1552 1552 1552 1552 1552 1551 1551 1551 1551 1551 1551 1550 1549 1548 1547 1546
1515 1517 1518 1519 1521 1522 1524 1526 1528 1529 1531 1532 1533 1533 1533 1534 1534 1534 1534 1535 1537 1538 1539 1540 1540 1541 1542 1543 1543 1544 1545 1545 1546 1547 1548 1549 1549 1550 1550 1551 1551 1551 1551 1552 1552 1552 1552 1552 1552 1552 1552 1552 1552 1551 1551 1551 1550 1550 1549 1548 1547 1545 1544
1514 1515 1516 1518 1519 1521 1523 1526 1527 1528 1530 1531 1532 1532 1532 1533 1533 1533 1534 1535 1537 1538 1538 1539 1540 1541 1542 1542 1543 1544 1545 1545 1546 1547 1548 1549 1549 1550 1550 1550 1551 1551 1551 1552 1552 1552 1552 1552 1552 1552 1552 1552 1552 1552 1551 1551 1550 1549 1549 1547 1546 1544 1542
1512 1513 1515 1517 1518 1520 1522 1524 1526 1527 1529 1530 1531 1531 1531 1532 1532 1533 1534 1535 1537 1537 1538 1539 1540 1541 1541 1542 1543 1544 1545 1545 1546 1547 1548 1549 1549 1550 1550 1551 1551 1551 1551 1552 1552 1552 1552 1552 1552 1552 1552 1552 1552 1552 1551 1550 1549 1549 1548 1546 1545 1543 1541
1510 1512 1513 1515 1517 1519 1521 1523 1524 1526 1528 1529 1530 1530 1531 1531 1532 1532 1534 1535 1536 1537 1538 1539 1540 1541 1541 1542 1543 1544 1544 1545 1546 1547 1548 1549 1549 1550 1550 1550 1550 1550 1551 1551 1552 1552 1552 1552 1551 1551 1551 1551 1552 1551 1551 1550 1548 1547 1547 1545 1543 1541 1540
1508 1510 1511 1513 1516 1518 1520 1521 1523 1526 1527 1528 1528 1529 1530 1531 1532 1532 1534 1535 1536 1537 1538 1539 1540 1541 1541 1542 1543 1544 1544 1545 1546 1547 1548 1548 1549 1549 1550 1550 1550 1550 1551 1551 1551 1551 1551 1551 1551 1551 1551 1551 1551 1551 1550 1549 1548 1546 1545 1544 1542 1540 1538
1506 1508 1510 1512 1514 1516 1518 1520 1522 1524 1526 1527 1527 1528 1529 1530 1531 1532 1534 1535 1536 1537 1538 1539 1540 1541 1541 1542 1543 1544 1544 1545 1546 1547 1548 1548 1548 1549 1549 1549 1550 1550 1551 1551 1551 1551 1551 1550 1550 1550 1551 1551 1551 1551 1550 1548 1547 1545 1543 1542 1541 1539 1537
1504 1506 1508 1510 1512 1514 1517 1519 1522 1523 1525 1526 1527 1528 1529 1530 1531 1532 1533 1534 1535 1536 1537 1539 1540 1540 1541 1542 1543 1544 1544 1545 1546 1547 1547 1548 1548 1549 1549 1549 1550 1550 1550 1550 1550 1550 1550 1550 1550 1550 1550 1550 1550 1550 1549 1548 1546 1545 1543 1541 1539 1538 1536
1501 1503 1506 1509 1511 1513 1516 1518 1521 1522 1524 1525 1526 1527 1528 1529 1530 1532 1532 1533 1535 1536 1537 1538 1539 1540 1541 1542 1543 1543 1544 1545 1546 1547 1547 1548 1548 1548 1548 1549 1549 1550 1550 1550 1550 1550 1550 1550 1549 1549 1549 1550 1549 1549 1548 1547 1546 1544 1542 1540 1538 1537 1535
1499 1501 1504 1507 1510 1512 1515 1517 1520 1521 1523 1524 1525 1526 1527 1528 1530 1531 1532 1533 1534 1535 1536 1537 1538 1539 1540 1541 1542 1543 1544 1545 1546 1546 1547 1547 1547 1548 1548 1548 1549 1549 1549 1549 1549 1549 1549 1549 1549 1549 1549 1549 1548 1548 1547 1546 1545 1544 1542 1540 1538 1536 1535
1498 1500 1503 1507 1509 1511 1514 1516 1518 1520 1521 1523 1524 1524 1526 1527 1528 1530 1531 1532 1533 1534 1535 1537 1538 1539 1540 1541 1541 1542 1543 1544 1545 1546 1546 1547 1547 1548 1548 1548 1548 1549 1549 1549 1549 1549 1549 1549 1549 1549 1549 1548 1548 1547 1546 1545 1544 1543 1541 1540 1537 1535 1533
1496 1499 1503 1505 1507 1510 1513 1515 1517 1518 1520 1521 1522 1523 1525 1526 1527 1528 1530 1531 1532 1533 1534 1536 1537 1538 1540 1540 1541 1542 1542 1543 1544 1545 1546 1546 1547 1547 1547 1548 1548 1548 1548 1548 1548 1548 1548 1549 1549 1548 1548 1548 1547 1546 1545 1544 1543 1542 1540 1538 1537 1534 1532
1495 1498 1501 1504 1506 1509 1511 1513 1515 1517 1518 1519 1520 1522 1523 1524 1526 1527 1528 1529 1531 1532 1533 1534 1536 1538 1539 1540 1541 1542 1542 1543 1543 1545 1545 1546 1546 1546 1547 1547 1547 1547 1548 1548 1548 1548 1548 1548 1548 1548 1547 1547 1546 1545 1545 1543 1542 1540 1539 1537 1535 1533 1531
1494 1497 1500 1502 1505 1507 1509 1512 1514 1515 1516 1517 1519 1520 1522 1523 1524 1526 1527 1527 1528 1530 1531 1533 1534 1536 1537 1538 1539 1540 1541 1543 1543 1544 1545 1545 1545 1546 1546 1546 1546 1547 1547 1548 1548 1548 1548 1548 1547 1547 1547 1546 1545 1545 1544 1542 1541 1539 1537 1535 1533 1531 1529
1492 1495 1498 1501 1503 1505 1507 1510 1511 1513 1514 1516 1517 1519 1520 1522 1523 1524 1524 1525 1526 1527 1530 1531 1532 1534 1535 1537 1538 1539 1540 1542 1542 1543 1544 1544 1545 1545 1545 1545 1546 1546 1547 1547 1547 1547 1547 1547 1547 1546 1546 1545 1545 1544 1543 1541 1539 1538 1536 1534 1532 1530 1528
1490 1493 1495 1499 1501 1503 1505 1508 1509 1511 1512 1514 1516 1517 1518 1519 1521 1521 1521 1523 1525 1526 1528 1530 1531 1532 1534 1536 1537 1537 1539 1541 1542 1542 1543 1544 1544 1545 1544 1544 1545 1546 1546 1546 1547 1547 1546 1546 1546 1546 1545 1545 1544 1543 1541 1540 1539 1537 1536 1534 1532 1530 1527
1488 1491 1493 1496 1499 1501 1504 1506 1507 1509 1510 1511 1513 1514 1516 1517 1518 1519 1520 1522 1523 1525 1526 1528 1530 1532 1533 1534 1535 1536 1538 1540 1541 1542 1542 1543 1544 1544 1544 1544 1544 1545 1545 1546 1546 1546 1545 1545 1545 1545 1545 1544 1543 1542 1540 1539 1538 1537 1535 1533 1531 1529 1527
1486 1489 1491 1494 1497 1499 1502 1504 1505 1506 1507 1508 1511 1512 1514 1515 1516 1517 1519 1520 1521 1523 1525 1527 1529 1531 1532 1533 1534 1536 1537 1539 1540 1541 1541 1542 1543 1544 1543 1543 1544 1544 1544 1544 1545 1544 1544 1544 1544 1544 1544 1543 1542 1541 1540 1539 1537 1536 1534 1532 1530 1528 1527
1484 1486 1489 1492 1495 1497 1500 1501 1502 1503 1504 1506 1508 1510 1511 1513 1514 1516 1518 1519 1520 1522 1524 1526 1528 1529 1531 1532 1534 1535 1537 1538 1539 1540 1541 1542 1543 1543 1542 1543 1543 1543 1543 1543 1543 1543 1543 1543 1543 1543 1542 1541 1540 1540 1539 1538 1537 1536 1534 1532 1530 1528 1527
1481 1484 1487 1490 1493 1495 1497 1498 1499 1500 1502 1504 1506 1507 1509 1511 1513 1516 1517 1518 1519 1521 1522 1525 1527 1528 1530 1532 1533 1534 1535 1536 1538 1539 1540 1540 1541 1541 1541 1542 1542 1543 1542 1542 1542 1543 1543 1543 1542 1542 1541 1540 1540 1539 1538 1537 1536 1535 1534 1532 1531 1529 1527
1479 1482 1485 1488 1490 1493 1494 1495 1497 1498 1499 1502 1503 1505 1507 1510 1512 1514 1515 1516 1518 1519 1521 1523 1525 1527 1528 1530 1532 1533 1534 1535 1536 1538 1538 1538 1539 1539 1540 1540 1541 1542 1542 1541 1541 1542 1542 1542 1542 1541 1540 1540 1539 1538 1538 1537 1536 1535 1534 1533 1531 1529 1526
1477 1479 1483 1486 1488 1490 1492 1493 1495 1496 1498 1501 1502 1503 1505 1507 1510 1512 1513 1515 1517 1518 1519 1521 1523 1525 1527 1528 1530 1532 1533 1534 1535 1536 1536 1536 1537 1538 1539 1539 1540 1541 1540 1540 1540 1541 1541 1541 1541 1540 1540 1539 1538 1538 1537 1536 1535 1535 1534 1532 1530 1527 1524
1476 1478 1481 1483 1485 1487 1490 1492 1493 1494 1497 1500 1502 1503 1504 1506 1508 1510 1512 1514 1516 1517 1518 1520 1522 1524 1525 1527 1529 1530 1531 1533 1533 1534 1535 1535 1536 1537 1537 1538 1539 1539 1539 1539 1540 1540 1540 1540 1540 1539 1539 1538 1537 1536 1535 1535 1534 1533 1532 1530 1528 1525 1523
1474 1476 1479 1481 1483 1485 1487 1490 1491 1493 1495 1498 1500 1502 1503 1504 1506 1508 1511 1514 1515 1515 1517 1519 1520 1522 1524 1526 1527 1528 1530 1532 1532 1533 1534 1534 1535 1536 1536 1536 1537 1537 1537 1538 1539 1539 1539 1539 1539 1538 1538 1537 1536 1535 1534 1533 1533 1531 1529 1527 1525 1524 1523
1472 1475 1477 1480 1482 1484 1485 1487 1490 1492 1494 1496 1498 1500 1501 1503 1505 1508 1510 1513 1514 1514 1515 1517 1518 1520 1522 1524 1526 1527 1528 1530 1531 1533 1533 1533 1534 1534 1534 1535 1536 1536 1536 1537 1537 1538 1538 1538 1538 1537 1537 1536 1535 1534 1533 1532 1531 1529 1528 1526 1524 1524 1524
1471 1473 1475 1478 1480 1482 1483 1485 1488 1490 1493 1495 1497 1499 1501 1503 1505 1507 1509 1511 1512 1512 1514 1515 1517 1518 1520 1522 1524 1526 1527 1528 1529 1531 1532 1533 1533 1533 1533 1533 1534 1535 1535 1536 1536 1537 1537 1537 1537 1536 1536 1535 1534 1533 1532 1531 1530 1528 1527 1525 1524 1524 1524
1469 1471 1474 1476 1478 1480 1482 1484 1487 1489 1491 1493 1495 1497 1498 1500 1503 1505 1506 1508 1509 1510 1511 1514 1515 1516 1518 1519 1521 1523 1525 1527 1527 1528 1530 1531 1532 1532 1532 1532 1533 1534 1534 1535 1535 1535 1536 1536 1536 1535 1535 1534 1533 1532 1531 1530 1528 1527 1526 1524 1525 1525 1523
1467 1470 1472 1474 1477 1479 1481 1483 1486 1488 1490 1492 1493 1494 1496 1498 1501 1503 1505 1506 1507 1507 1509 1512 1514 1515 1516 1518 1519 1521 1523 1525 1526 1527 1528 1530 1531 1532 1531 1531 1531 1532 1533 1533 1534 1534 1534 1534 1534 1534 1534 1533 1532 1531 1530 1529 1528 1526 1525 1525 1525 1524 1522
1466 1468 1470 1473 1475 1477 1479 1481 1484 1486 1488 1489 1490 1492 1494 1497 1498 1501 1503 1505 1505 1505 1506 1509 1511 1513 1514 1516 1518 1519 1521 1523 1524 1525 1527 1528 1528 1529 1529 1529 1530 1531 1531 1532 1533 1533 1533 1533 1533 1533 1532 1531 1530 1529 1529 1528 1526 1525 1525 1525 1525 1524 1522